Location: Unspecified
(64.9000°N, 0.0000°E)
Time: 17:40:53
(UTC+00:00)

Transit 2A Rocket - Pass Details

Date: 24 June 2019
Orbit: 591 x 913 km, 66.7° (Epoch: 25 August)

Event Time Altitude Azimuth Distance (km) Brightness Sun altitude
Rises 17:40:44 0° 304° (NW) 3,408 9.3 23.4°
Reaches altitude 10° 17:43:27 10° 297° (WNW) 2,422 9.1 23.1°
Maximum altitude 17:48:27 36° 233° (SW) 1,214 7.0 22.6°
Drops below altitude 10° 17:53:03 10° 168° (SSE) 2,214 7.3 22.1°
Sets 17:55:26 0° 159° (SSE) 3,078 7.9 21.8°
